KOEO

Details ICAO KOEO
Name L O SIMENSTAD MUNI
Region United States
Timezone America/Chicago (UTC-5.0)
Plans Departing 5
Arriving 1
Stats Elevation 903 ft / 275 m (AMSL)
Location 45.310489° -92.692443°
Runways 2
Magnetic Variation 0.329° W
Sunrise 2018-05-20 10:36:51 UTC / 2018-05-20 05:36:51 Local
Sunset 2018-05-21 01:40:37 UTC / 2018-05-20 20:40:37 Local
Advertisement - Login to hide

Runways

ID Width Length Bearing (true) Bearing (mag) Surface Threshold Offset Overrun Length
04 150 ft / 46 m 2,268 ft / 691 m 44.97° 45.30° Grass 380 ft / 116 m 0 ft / 0 m
10 75 ft / 23 m 3,792 ft / 1,156 m 103.81° 104.14° Asphalt 0 ft / 0 m 0 ft / 0 m
22 150 ft / 46 m 2,268 ft / 691 m 224.97° 225.30° Grass 0 ft / 0 m 0 ft / 0 m
28 75 ft / 23 m 3,792 ft / 1,156 m 283.82° 284.15° Asphalt 0 ft / 0 m 0 ft / 0 m

Map

Weather


0- 5 10 15 20 25 30 35+ Temperature / ° C

Clouds and Precipitation
Forecast for 2018-05-21 06:00 UTC. Updated 2 minutes ago

Ground ~20,000 ft ~40,000 ft Winds

METAR

KOEO 210315Z AUTO 00000KT 10SM CLR 11/03 A3018 RMK AO2 T01070026

TAF

Not found

Frequencies

Recorded 119.92 MHz AWOS 3
Approach 121.20 MHz MINNEAPOLIS APP
Unicom 122.90 MHz CTAF
Departure 121.20 MHz MINNEAPOLIS DEP
Warning: Do not use this data for real-world aviation or navigation. No guarantee of current accuracy is given.